| time (UTC) | temp C | wind direction | speed KPH | gust KPH | rain 1hr cm | rain 24hr cm | rain mn cm | humidity % | barometer mb |
| 20260508180954 | 17 | 218 | 0.0 | 22.5 | 0.00 | 0.00 | 0.00 | 40 | 1008.7 |
| 20260508175953 | 17 | 306 | 0.0 | 25.7 | 0.00 | 0.00 | 0.00 | 37 | 1008.8 |
| 20260508174952 | 16 | 234 | 0.0 | 29.0 | 0.00 | 0.00 | 0.00 | 37 | 1008.8 |
| 20260508173952 | 16 | 337 | 0.0 | 32.2 | 0.00 | 0.00 | 0.00 | 39 | 1008.9 |
| 20260508172951 | 16 | 203 | 0.0 | 3.2 | 0.00 | 0.00 | 0.00 | 37 | 1009.2 |
| 20260508170949 | 16 | 175 | 0.0 | 22.5 | 0.00 | 0.00 | 0.00 | 39 | 1009.7 |
| 20260508165948 | 15 | 208 | 0.0 | 6.4 | 0.00 | 0.00 | 0.00 | 39 | 1009.8 |
| 20260508163946 | 15 | 250 | 0.0 | 16.1 | 0.00 | 0.00 | 0.00 | 42 | 1010.1 |
| 20260508162946 | 15 | 299 | 0.0 | 0.0 | 0.00 | 0.00 | 0.00 | 42 | 1010.0 |
| 20260508161945 | 15 | 169 | 0.0 | 16.1 | 0.00 | 0.00 | 0.00 | 45 | 1010.1 |
| 20260508160944 | 15 | 172 | 0.0 | 0.0 | 0.00 | 0.00 | 0.00 | 45 | 1010.1 |
| 20260508155943 | 15 | 206 | 0.0 | 3.2 | 0.00 | 0.00 | 0.00 | 41 | 1010.3 |
| 20260508154942 | 14 | 208 | 0.0 | 19.3 | 0.00 | 0.00 | 0.00 | 45 | 1010.3 |
| 20260508153942 | 13 | 196 | 0.0 | 0.0 | 0.00 | 0.00 | 0.00 | 45 | 1010.4 |
| 20260508152941 | 13 | 294 | 0.0 | 0.0 | 0.00 | 0.00 | 0.00 | 51 | 1010.5 |
| 20260508151940 | 13 | 154 | 0.0 | 0.0 | 0.00 | 0.00 | 0.00 | 51 | 1010.6 |
| 20260508144007 | 11 | 180 | 0.0 | 0.0 | 0.00 | 0.00 | 0.00 | 58 | 1010.9 |
| 20260508143006 | 11 | 219 | 0.0 | 0.0 | 0.00 | 0.00 | 0.00 | 63 | 1011.0 |
| 20260508142005 | 10 | 203 | 0.0 | 0.0 | 0.00 | 0.00 | 0.00 | 68 | 1010.9 |
| 20260508135003 | 9 | 227 | 0.0 | 0.0 | 0.00 | 0.00 | 0.00 | 81 | 1011.2 |
| 20260508134002 | 8 | 218 | 0.0 | 0.0 | 0.00 | 0.00 | 0.00 | 83 | 1011.2 |
| 20260508133001 | 8 | 62 | 0.0 | 6.4 | 0.00 | 0.00 | 0.00 | 84 | 1011.3 |
| 20260508130959 | 7 | 312 | 0.0 | 0.0 | 0.00 | 0.00 | 0.00 | 88 | 1011.3 |
| 20260508124957 | 7 | 232 | 0.0 | 0.0 | 0.00 | 0.00 | 0.00 | 90 | 1011.3 |
| 20260508123956 | 7 | 271 | 0.0 | 0.0 | 0.00 | 0.00 | 0.00 | 91 | 1011.3 |
| 20260508121955 | 6 | 227 | 0.0 | 0.0 | 0.00 | 0.00 | 0.00 | 93 | 1011.2 |
| 20260508120954 | 6 | 230 | 0.0 | 12.9 | 0.00 | 0.00 | 0.00 | 94 | 1010.9 |
| 20260508114952 | 5 | 185 | 0.0 | 0.0 | 0.00 | 0.00 | 0.00 | 94 | 1010.7 |
| 20260508113952 | 4 | 185 | 0.0 | 6.4 | 0.00 | 0.00 | 0.00 | 94 | 1010.7 |
| 20260508111951 | 3 | 184 | 0.0 | 0.0 | 0.00 | 0.00 | 0.00 | 93 | 1010.6 |
| 20260508110950 | 3 | 185 | 0.0 | 0.0 | 0.00 | 0.00 | 0.00 | 92 | 1010.4 |
| 20260508105949 | 3 | 185 | 0.0 | 0.0 | 0.00 | 0.00 | 0.00 | 92 | 1010.2 |
| 20260508104948 | 3 | 185 | 0.0 | 0.0 | 0.00 | 0.00 | 0.00 | 92 | 1010.2 |
| 20260508103947 | 3 | 185 | 0.0 | 0.0 | 0.00 | 0.00 | 0.00 | 92 | 1010.1 |
| 20260508102946 | 3 | 185 | 0.0 | 0.0 | 0.00 | 0.00 | 0.00 | 92 | 1010.1 |
| 20260508100944 | 3 | 185 | 0.0 | 0.0 | 0.00 | 0.00 | 0.00 | 92 | 1010.1 |
| 20260508094944 | 3 | 185 | 0.0 | 0.0 | 0.00 | 0.00 | 0.00 | 91 | 1010.2 |
| 20260508071948 | 4 | 185 | 0.0 | 0.0 | 0.00 | 0.00 | 0.00 | 89 | 1010.8 |
| 20260508065947 | 4 | 185 | 0.0 | 0.0 | 0.00 | 0.00 | 0.00 | 88 | 1010.9 |
| 20260508062946 | 5 | 185 | 0.0 | 0.0 | 0.00 | 0.00 | 0.00 | 84 | 1010.9 |
| 20260508061945 | 5 | 185 | 0.0 | 0.0 | 0.00 | 0.00 | 0.00 | 84 | 1011.0 |
| 20260508060945 | 5 | 185 | 0.0 | 0.0 | 0.00 | 0.00 | 0.00 | 84 | 1011.0 |
| 20260508054943 | 6 | 185 | 0.0 | 0.0 | 0.00 | 0.00 | 0.00 | 83 | 1011.0 |
| 20260508053943 | 6 | 185 | 0.0 | 0.0 | 0.00 | 0.00 | 0.00 | 83 | 1010.9 |
| 20260508052943 | 6 | 185 | 0.0 | 0.0 | 0.00 | 0.00 | 0.00 | 83 | 1010.9 |
| 20260508051942 | 6 | 185 | 0.0 | 0.0 | 0.00 | 0.00 | 0.00 | 84 | 1011.0 |
| 20260508050941 | 6 | 185 | 0.0 | 0.0 | 0.00 | 0.00 | 0.00 | 84 | 1010.9 |
| 20260508045940 | 6 | 183 | 0.0 | 0.0 | 0.00 | 0.00 | 0.00 | 84 | 1010.9 |
| 20260508044940 | 6 | 184 | 0.0 | 0.0 | 0.00 | 0.00 | 0.00 | 83 | 1010.8 |
| 20260508043939 | 6 | 184 | 0.0 | 0.0 | 0.00 | 0.00 | 0.00 | 82 | 1010.7 |
| 20260508042938 | 6 | 184 | 0.0 | 0.0 | 0.00 | 0.00 | 0.00 | 81 | 1010.8 |
| 20260508042008 | 6 | 184 | 0.0 | 0.0 | 0.00 | 0.00 | 0.00 | 80 | 1010.8 |
| 20260508041007 | 6 | 184 | 0.0 | 0.0 | 0.00 | 0.00 | 0.00 | 79 | 1010.8 |
| 20260508040007 | 6 | 184 | 0.0 | 0.0 | 0.00 | 0.00 | 0.00 | 79 | 1010.8 |
| 20260508034005 | 7 | 184 | 0.0 | 0.0 | 0.00 | 0.00 | 0.00 | 78 | 1010.8 |
| 20260508033005 | 7 | 183 | 0.0 | 0.0 | 0.00 | 0.00 | 0.00 | 77 | 1010.8 |